owner,sensor,date,latitude,longitude,vertical_datum,sea_water_practical_salinity,qcFlag 
SCCF RECON,ioos:station:SCCF:13:1,2015-05-01T00:00:00Z,26.5255,-82.0032,2.19,15.93,1111122 
SCCF RECON,ioos:station:SCCF:13:1,2015-05-01T01:00:00Z,26.5255,-82.0032,2.288,14.81,1111122 
SCCF RECON,ioos:station:SCCF:13:1,2015-05-01T02:00:00Z,26.5255,-82.0032,2.38,15.28,1111122 
SCCF RECON,ioos:station:SCCF:13:1,2015-05-01T03:00:00Z,26.5255,-82.0032,2.47,18.21,1111122 
SCCF RECON,ioos:station:SCCF:13:1,2015-05-01T04:00:00Z,26.5255,-82.0032,2.51,20.57,1111122 
SCCF RECON,ioos:station:SCCF:13:1,2015-05-01T05:00:00Z,26.5255,-82.0032,2.516,22.28,1111122 
SCCF RECON,ioos:station:SCCF:13:1,2015-05-01T06:00:00Z,26.5255,-82.0032,2.5,24.61,1111122 
SCCF RECON,ioos:station:SCCF:13:1,2015-05-01T07:00:00Z,26.5255,-82.0032,2.42,25.31,1111122 
SCCF RECON,ioos:station:SCCF:13:1,2015-05-01T08:00:00Z,26.5255,-82.0032,2.35,21.46,1111122 
SCCF RECON,ioos:station:SCCF:13:1,2015-05-01T09:00:00Z,26.5255,-82.0032,2.292,18.27,1111122 
SCCF RECON,ioos:station:SCCF:13:1,2015-05-01T10:00:00Z,26.5255,-82.0032,2.26,16.27,1111122 
SCCF RECON,ioos:station:SCCF:13:1,2015-05-01T11:00:00Z,26.5255,-82.0032,2.24,14.76,1111122 
SCCF RECON,ioos:station:SCCF:13:1,2015-05-01T12:00:00Z,26.5255,-82.0032,2.28,13.57,1111122 
SCCF RECON,ioos:station:SCCF:13:1,2015-05-01T13:00:00Z,26.5255,-82.0032,2.4,14.15,1111122 
SCCF RECON,ioos:station:SCCF:13:1,2015-05-01T14:00:00Z,26.5255,-82.0032,2.51,19.24,1111122 
SCCF RECON,ioos:station:SCCF:13:1,2015-05-01T15:00:00Z,26.5255,-82.0032,2.59,23.84,1111122 
SCCF RECON,ioos:station:SCCF:13:1,2015-05-01T16:00:00Z,26.5255,-82.0032,2.66,27.24,1111122 
SCCF RECON,ioos:station:SCCF:13:1,2015-05-01T17:00:00Z,26.5255,-82.0032,2.666,28.23,1111122 
SCCF RECON,ioos:station:SCCF:13:1,2015-05-01T18:00:00Z,26.5255,-82.0032,2.6,28.39,1111122 
SCCF RECON,ioos:station:SCCF:13:1,2015-05-01T19:00:00Z,26.5255,-82.0032,2.49,28.41,1111122 
SCCF RECON,ioos:station:SCCF:13:1,2015-05-01T20:00:00Z,26.5255,-82.0032,2.39,25.16,1111122 
SCCF RECON,ioos:station:SCCF:13:1,2015-05-01T21:00:00Z,26.5255,-82.0032,2.32,25.27,1111122 
SCCF RECON,ioos:station:SCCF:13:1,2015-05-01T22:00:00Z,26.5255,-82.0032,2.25,22.54,1111122 
SCCF RECON,ioos:station:SCCF:13:1,2015-05-01T23:00:00Z,26.5255,-82.0032,2.19,19.0,1111122 
SCCF RECON,ioos:station:SCCF:13:1,2015-05-02T00:00:00Z,26.5255,-82.0032,2.15,17.03,1111122 
SCCF RECON,ioos:station:SCCF:13:1,2015-05-02T01:00:00Z,26.5255,-82.0032,2.19,15.16,1111122 
SCCF RECON,ioos:station:SCCF:13:1,2015-05-02T02:00:00Z,26.5255,-82.0032,2.3,14.03,1111122 
SCCF RECON,ioos:station:SCCF:13:1,2015-05-02T03:00:00Z,26.5255,-82.0032,2.4,14.99,1111122 
SCCF RECON,ioos:station:SCCF:13:1,2015-05-02T04:00:00Z,26.5255,-82.0032,2.47,19.91,1111122 
SCCF RECON,ioos:station:SCCF:13:1,2015-05-02T05:00:00Z,26.5255,-82.0032,2.516,21.98,1111122 
SCCF RECON,ioos:station:SCCF:13:1,2015-05-02T06:00:00Z,26.5255,-82.0032,2.52,23.83,1111122 
SCCF RECON,ioos:station:SCCF:13:1,2015-05-02T07:00:00Z,26.5255,-82.0032,2.47,25.31,1111122 
SCCF RECON,ioos:station:SCCF:13:1,2015-05-02T08:00:00Z,26.5255,-82.0032,2.376,24.96,1111122 
SCCF RECON,ioos:station:SCCF:13:1,2015-05-02T09:00:00Z,26.5255,-82.0032,2.293,19.99,1111122 
SCCF RECON,ioos:station:SCCF:13:1,2015-05-02T10:00:00Z,26.5255,-82.0032,2.24,16.28,1111122 
SCCF RECON,ioos:station:SCCF:13:1,2015-05-02T11:00:00Z,26.5255,-82.0032,2.19,15.12,1111122 
SCCF RECON,ioos:station:SCCF:13:1,2015-05-02T12:00:00Z,26.5255,-82.0032,2.162,13.79,1111122 
SCCF RECON,ioos:station:SCCF:13:1,2015-05-02T13:00:00Z,26.5255,-82.0032,2.24,12.76,1111122 
SCCF RECON,ioos:station:SCCF:13:1,2015-05-02T14:00:00Z,26.5255,-82.0032,2.398,12.8,1111122 
SCCF RECON,ioos:station:SCCF:13:1,2015-05-02T15:00:00Z,26.5255,-82.0032,2.52,18.91,1111122 
SCCF RECON,ioos:station:SCCF:13:1,2015-05-02T16:00:00Z,26.5255,-82.0032,2.58,22.8,1111122 
SCCF RECON,ioos:station:SCCF:13:1,2015-05-02T17:00:00Z,26.5255,-82.0032,2.61,27.19,1111122 
SCCF RECON,ioos:station:SCCF:13:1,2015-05-02T18:00:00Z,26.5255,-82.0032,2.61,27.98,1111122 
SCCF RECON,ioos:station:SCCF:13:1,2015-05-02T19:00:00Z,26.5255,-82.0032,2.53,28.19,1111122 
SCCF RECON,ioos:station:SCCF:13:1,2015-05-02T20:00:00Z,26.5255,-82.0032,2.42,28.19,1111122 
SCCF RECON,ioos:station:SCCF:13:1,2015-05-02T21:00:00Z,26.5255,-82.0032,2.32,24.72,1111122 
SCCF RECON,ioos:station:SCCF:13:1,2015-05-02T22:00:00Z,26.5255,-82.0032,2.25,20.25,1111122 
SCCF RECON,ioos:station:SCCF:13:1,2015-05-02T23:00:00Z,26.5255,-82.0032,2.19,17.41,1111122 
SCCF RECON,ioos:station:SCCF:13:1,2015-05-03T00:00:00Z,26.5255,-82.0032,2.149,15.94,1111122 
SCCF RECON,ioos:station:SCCF:13:1,2015-05-03T01:00:00Z,26.5255,-82.0032,2.15,14.1,1111122 
SCCF RECON,ioos:station:SCCF:13:1,2015-05-03T02:00:00Z,26.5255,-82.0032,2.26,12.81,1111122 
SCCF RECON,ioos:station:SCCF:13:1,2015-05-03T03:00:00Z,26.5255,-82.0032,2.4,15.31,1111122 
SCCF RECON,ioos:station:SCCF:13:1,2015-05-03T04:00:00Z,26.5255,-82.0032,2.49,18.87,1111122 
SCCF RECON,ioos:station:SCCF:13:1,2015-05-03T05:00:00Z,26.5255,-82.0032,2.53,22.32,1111122 
SCCF RECON,ioos:station:SCCF:13:1,2015-05-03T06:00:00Z,26.5255,-82.0032,2.56,26.01,1111122 
SCCF RECON,ioos:station:SCCF:13:1,2015-05-03T07:00:00Z,26.5255,-82.0032,2.56,28.1,1111122 
SCCF RECON,ioos:station:SCCF:13:1,2015-05-03T08:00:00Z,26.5255,-82.0032,2.5,27.85,1111122 
SCCF RECON,ioos:station:SCCF:13:1,2015-05-03T09:00:00Z,26.5255,-82.0032,2.4,28.16,1111122 
SCCF RECON,ioos:station:SCCF:13:1,2015-05-03T10:00:00Z,26.5255,-82.0032,2.32,21.27,1111122 
SCCF RECON,ioos:station:SCCF:13:1,2015-05-03T11:00:00Z,26.5255,-82.0032,2.28,15.64,1111122 
SCCF RECON,ioos:station:SCCF:13:1,2015-05-03T12:00:00Z,26.5255,-82.0032,2.28,14.83,1111122 
SCCF RECON,ioos:station:SCCF:13:1,2015-05-03T13:00:00Z,26.5255,-82.0032,2.369,13.87,1111122 
SCCF RECON,ioos:station:SCCF:13:1,2015-05-03T14:00:00Z,26.5255,-82.0032,2.517,21.48,1111122 
SCCF RECON,ioos:station:SCCF:13:1,2015-05-03T15:00:00Z,26.5255,-82.0032,2.62,23.73,1111122 
SCCF RECON,ioos:station:SCCF:13:1,2015-05-03T16:00:00Z,26.5255,-82.0032,2.68,26.52,1111122 
SCCF RECON,ioos:station:SCCF:13:1,2015-05-03T17:00:00Z,26.5255,-82.0032,2.72,29.06,1111122 
SCCF RECON,ioos:station:SCCF:13:1,2015-05-03T18:00:00Z,26.5255,-82.0032,2.72,30.04,1111122 
SCCF RECON,ioos:station:SCCF:13:1,2015-05-03T19:00:00Z,26.5255,-82.0032,2.67,29.93,1111122 
SCCF RECON,ioos:station:SCCF:13:1,2015-05-03T20:00:00Z,26.5255,-82.0032,2.57,29.85,1111122 
SCCF RECON,ioos:station:SCCF:13:1,2015-05-03T21:00:00Z,26.5255,-82.0032,2.46,27.77,1111122 
SCCF RECON,ioos:station:SCCF:13:1,2015-05-03T22:00:00Z,26.5255,-82.0032,2.36,19.73,1111122 
SCCF RECON,ioos:station:SCCF:13:1,2015-05-03T23:00:00Z,26.5255,-82.0032,2.29,18.51,1111122 
SCCF RECON,ioos:station:SCCF:13:1,2015-05-04T00:00:00Z,26.5255,-82.0032,2.21,17.47,1111122 
SCCF RECON,ioos:station:SCCF:13:1,2015-05-04T01:00:00Z,26.5255,-82.0032,2.175,16.05,1111122 
SCCF RECON,ioos:station:SCCF:13:1,2015-05-04T02:00:00Z,26.5255,-82.0032,2.24,14.96,1111122 
SCCF RECON,ioos:station:SCCF:13:1,2015-05-04T03:00:00Z,26.5255,-82.0032,2.37,14.57,1111122 
SCCF RECON,ioos:station:SCCF:13:1,2015-05-04T04:00:00Z,26.5255,-82.0032,2.46,17.17,1111122 
SCCF RECON,ioos:station:SCCF:13:1,2015-05-04T05:00:00Z,26.5255,-82.0032,2.52,20.22,1111122 
SCCF RECON,ioos:station:SCCF:13:1,2015-05-04T06:00:00Z,26.5255,-82.0032,2.56,24.08,1111122 
SCCF RECON,ioos:station:SCCF:13:1,2015-05-04T07:00:00Z,26.5255,-82.0032,2.57,27.76,1111122 
SCCF RECON,ioos:station:SCCF:13:1,2015-05-04T08:00:00Z,26.5255,-82.0032,2.51,28.81,1111122 
SCCF RECON,ioos:station:SCCF:13:1,2015-05-04T09:00:00Z,26.5255,-82.0032,2.433,29.29,1111122 
SCCF RECON,ioos:station:SCCF:13:1,2015-05-04T10:00:00Z,26.5255,-82.0032,2.38,28.65,1111122 
SCCF RECON,ioos:station:SCCF:13:1,2015-05-04T11:00:00Z,26.5255,-82.0032,2.34,19.38,1111122 
SCCF RECON,ioos:station:SCCF:13:1,2015-05-04T12:00:00Z,26.5255,-82.0032,2.34,15.61,1111122 
SCCF RECON,ioos:station:SCCF:13:1,2015-05-04T13:00:00Z,26.5255,-82.0032,2.423,16.13,1111122 
SCCF RECON,ioos:station:SCCF:13:1,2015-05-04T14:00:00Z,26.5255,-82.0032,2.53,22.87,1111122 
SCCF RECON,ioos:station:SCCF:13:1,2015-05-04T15:00:00Z,26.5255,-82.0032,2.623,25.46,1111122 
SCCF RECON,ioos:station:SCCF:13:1,2015-05-04T16:00:00Z,26.5255,-82.0032,2.68,27.57,1111122 
SCCF RECON,ioos:station:SCCF:13:1,2015-05-04T17:00:00Z,26.5255,-82.0032,2.71,29.62,1111122 
SCCF RECON,ioos:station:SCCF:13:1,2015-05-04T18:00:00Z,26.5255,-82.0032,2.75,30.85,1111122 
SCCF RECON,ioos:station:SCCF:13:1,2015-05-04T19:00:00Z,26.5255,-82.0032,2.726,30.98,1111122 
SCCF RECON,ioos:station:SCCF:13:1,2015-05-04T20:00:00Z,26.5255,-82.0032,2.62,31.06,1111122 
SCCF RECON,ioos:station:SCCF:13:1,2015-05-04T21:00:00Z,26.5255,-82.0032,2.494,30.89,1111122 
SCCF RECON,ioos:station:SCCF:13:1,2015-05-04T22:00:00Z,26.5255,-82.0032,2.385,21.79,1111122 
SCCF RECON,ioos:station:SCCF:13:1,2015-05-04T23:00:00Z,26.5255,-82.0032,2.31,18.13,1111122 
SCCF RECON,ioos:station:SCCF:13:1,2015-05-05T00:00:00Z,26.5255,-82.0032,2.225,18.32,1111122 
SCCF RECON,ioos:station:SCCF:13:1,2015-05-05T01:00:00Z,26.5255,-82.0032,2.16,16.39,1111122 
SCCF RECON,ioos:station:SCCF:13:1,2015-05-05T02:00:00Z,26.5255,-82.0032,2.15,15.29,1111122 
SCCF RECON,ioos:station:SCCF:13:1,2015-05-05T03:00:00Z,26.5255,-82.0032,2.26,14.84,1111122 
SCCF RECON,ioos:station:SCCF:13:1,2015-05-05T04:00:00Z,26.5255,-82.0032,2.38,14.97,1111122 
SCCF RECON,ioos:station:SCCF:13:1,2015-05-05T05:00:00Z,26.5255,-82.0032,2.45,18.02,1111122 
SCCF RECON,ioos:station:SCCF:13:1,2015-05-05T06:00:00Z,26.5255,-82.0032,2.5,21.51,1111122 
SCCF RECON,ioos:station:SCCF:13:1,2015-05-05T07:00:00Z,26.5255,-82.0032,2.55,25.48,1111122 
SCCF RECON,ioos:station:SCCF:13:1,2015-05-05T08:00:00Z,26.5255,-82.0032,2.55,28.76,1111122 
SCCF RECON,ioos:station:SCCF:13:1,2015-05-05T09:00:00Z,26.5255,-82.0032,2.51,29.27,1111122 
SCCF RECON,ioos:station:SCCF:13:1,2015-05-05T10:00:00Z,26.5255,-82.0032,2.46,29.69,1111122 
SCCF RECON,ioos:station:SCCF:13:1,2015-05-05T11:00:00Z,26.5255,-82.0032,2.41,29.51,1111122 
SCCF RECON,ioos:station:SCCF:13:1,2015-05-05T12:00:00Z,26.5255,-82.0032,2.38,26.27,1111122 
SCCF RECON,ioos:station:SCCF:13:1,2015-05-05T13:00:00Z,26.5255,-82.0032,2.39,22.76,1111122 
SCCF RECON,ioos:station:SCCF:13:1,2015-05-05T14:00:00Z,26.5255,-82.0032,2.459,25.46,1111122 
SCCF RECON,ioos:station:SCCF:13:1,2015-05-05T15:00:00Z,26.5255,-82.0032,2.569,26.97,1111122 
SCCF RECON,ioos:station:SCCF:13:1,2015-05-05T16:00:00Z,26.5255,-82.0032,2.67,27.88,1111122 
SCCF RECON,ioos:station:SCCF:13:1,2015-05-05T17:00:00Z,26.5255,-82.0032,2.72,29.15,1111122 
SCCF RECON,ioos:station:SCCF:13:1,2015-05-05T18:00:00Z,26.5255,-82.0032,2.76,30.47,1111122 
SCCF RECON,ioos:station:SCCF:13:1,2015-05-05T19:00:00Z,26.5255,-82.0032,2.78,31.2,1111122 
SCCF RECON,ioos:station:SCCF:13:1,2015-05-05T20:00:00Z,26.5255,-82.0032,2.73,31.32,1111122 
SCCF RECON,ioos:station:SCCF:13:1,2015-05-05T21:00:00Z,26.5255,-82.0032,2.62,31.37,1111122 
SCCF RECON,ioos:station:SCCF:13:1,2015-05-05T22:00:00Z,26.5255,-82.0032,2.49,29.92,1111122 
SCCF RECON,ioos:station:SCCF:13:1,2015-05-05T23:00:00Z,26.5255,-82.0032,2.4,22.17,1111122 
SCCF RECON,ioos:station:SCCF:13:1,2015-05-06T00:00:00Z,26.5255,-82.0032,2.317,21.74,1111122 
SCCF RECON,ioos:station:SCCF:13:1,2015-05-06T01:00:00Z,26.5255,-82.0032,2.229,19.48,1111122 
SCCF RECON,ioos:station:SCCF:13:1,2015-05-06T02:00:00Z,26.5255,-82.0032,2.17,18.75,1111122 
SCCF RECON,ioos:station:SCCF:13:1,2015-05-06T03:00:00Z,26.5255,-82.0032,2.21,17.5,1111122 
SCCF RECON,ioos:station:SCCF:13:1,2015-05-06T04:00:00Z,26.5255,-82.0032,2.36,16.29,1111122 
SCCF RECON,ioos:station:SCCF:13:1,2015-05-06T05:00:00Z,26.5255,-82.0032,2.45,18.64,1111122 
SCCF RECON,ioos:station:SCCF:13:1,2015-05-06T06:00:00Z,26.5255,-82.0032,2.5,21.03,1111122 
SCCF RECON,ioos:station:SCCF:13:1,2015-05-06T07:00:00Z,26.5255,-82.0032,2.57,24.37,1111122 
SCCF RECON,ioos:station:SCCF:13:1,2015-05-06T08:00:00Z,26.5255,-82.0032,2.61,27.62,1111122 
SCCF RECON,ioos:station:SCCF:13:1,2015-05-06T09:00:00Z,26.5255,-82.0032,2.6,29.23,1111122 
SCCF RECON,ioos:station:SCCF:13:1,2015-05-06T10:00:00Z,26.5255,-82.0032,2.56,29.29,1111122 
SCCF RECON,ioos:station:SCCF:13:1,2015-05-06T11:00:00Z,26.5255,-82.0032,2.51,29.7,1111122 
SCCF RECON,ioos:station:SCCF:13:1,2015-05-06T12:00:00Z,26.5255,-82.0032,2.47,29.43,1111122 
SCCF RECON,ioos:station:SCCF:13:1,2015-05-06T13:00:00Z,26.5255,-82.0032,2.44,27.99,1111122 
SCCF RECON,ioos:station:SCCF:13:1,2015-05-06T14:00:00Z,26.5255,-82.0032,2.45,25.85,1111122 
SCCF RECON,ioos:station:SCCF:13:1,2015-05-06T15:00:00Z,26.5255,-82.0032,2.558,26.85,1111122 
SCCF RECON,ioos:station:SCCF:13:1,2015-05-06T16:00:00Z,26.5255,-82.0032,2.67,26.7,1111122 
SCCF RECON,ioos:station:SCCF:13:1,2015-05-06T17:00:00Z,26.5255,-82.0032,2.76,28.59,1111122 
SCCF RECON,ioos:station:SCCF:13:1,2015-05-06T18:00:00Z,26.5255,-82.0032,2.8,30.13,1111122 
SCCF RECON,ioos:station:SCCF:13:1,2015-05-06T19:00:00Z,26.5255,-82.0032,2.821,31.4,1111122 
SCCF RECON,ioos:station:SCCF:13:1,2015-05-06T20:00:00Z,26.5255,-82.0032,2.79,30.72,1111122 
SCCF RECON,ioos:station:SCCF:13:1,2015-05-06T21:00:00Z,26.5255,-82.0032,2.691,31.37,1111122 
SCCF RECON,ioos:station:SCCF:13:1,2015-05-06T22:00:00Z,26.5255,-82.0032,2.58,30.2,1111122 
SCCF RECON,ioos:station:SCCF:13:1,2015-05-06T23:00:00Z,26.5255,-82.0032,2.48,29.75,1111122 
SCCF RECON,ioos:station:SCCF:13:1,2015-05-07T00:00:00Z,26.5255,-82.0032,2.41,28.97,1111122 
SCCF RECON,ioos:station:SCCF:13:1,2015-05-07T01:00:00Z,26.5255,-82.0032,2.33,24.65,1111122 
SCCF RECON,ioos:station:SCCF:13:1,2015-05-07T02:00:00Z,26.5255,-82.0032,2.26,20.9,1111122 
SCCF RECON,ioos:station:SCCF:13:1,2015-05-07T03:00:00Z,26.5255,-82.0032,2.21,18.72,1111122 
SCCF RECON,ioos:station:SCCF:13:1,2015-05-07T04:00:00Z,26.5255,-82.0032,2.25,17.86,1111122 
SCCF RECON,ioos:station:SCCF:13:1,2015-05-07T05:00:00Z,26.5255,-82.0032,2.36,16.5,1111122 
SCCF RECON,ioos:station:SCCF:13:1,2015-05-07T06:00:00Z,26.5255,-82.0032,2.46,17.15,1111122 
SCCF RECON,ioos:station:SCCF:13:1,2015-05-07T07:00:00Z,26.5255,-82.0032,2.52,21.94,1111122 
SCCF RECON,ioos:station:SCCF:13:1,2015-05-07T08:00:00Z,26.5255,-82.0032,2.581,25.29,1111122 
SCCF RECON,ioos:station:SCCF:13:1,2015-05-07T09:00:00Z,26.5255,-82.0032,2.61,27.24,1111122 
SCCF RECON,ioos:station:SCCF:13:1,2015-05-07T10:00:00Z,26.5255,-82.0032,2.61,28.24,1111122 
SCCF RECON,ioos:station:SCCF:13:1,2015-05-07T11:00:00Z,26.5255,-82.0032,2.58,28.43,1111122 
SCCF RECON,ioos:station:SCCF:13:1,2015-05-07T12:00:00Z,26.5255,-82.0032,2.53,28.74,1111122 
SCCF RECON,ioos:station:SCCF:13:1,2015-05-07T13:00:00Z,26.5255,-82.0032,2.49,28.61,1111122 
SCCF RECON,ioos:station:SCCF:13:1,2015-05-07T14:00:00Z,26.5255,-82.0032,2.49,26.98,1111122 
SCCF RECON,ioos:station:SCCF:13:1,2015-05-07T15:00:00Z,26.5255,-82.0032,2.55,24.2,1111122 
SCCF RECON,ioos:station:SCCF:13:1,2015-05-07T16:00:00Z,26.5255,-82.0032,2.66,25.72,1111122 
SCCF RECON,ioos:station:SCCF:13:1,2015-05-07T17:00:00Z,26.5255,-82.0032,2.74,27.33,1111122 
SCCF RECON,ioos:station:SCCF:13:1,2015-05-07T18:00:00Z,26.5255,-82.0032,2.778,29.01,1111122 
SCCF RECON,ioos:station:SCCF:13:1,2015-05-07T19:00:00Z,26.5255,-82.0032,2.81,30.28,1111122 
SCCF RECON,ioos:station:SCCF:13:1,2015-05-07T20:00:00Z,26.5255,-82.0032,2.82,30.94,1111122 
SCCF RECON,ioos:station:SCCF:13:1,2015-05-07T21:00:00Z,26.5255,-82.0032,2.77,30.9,1111122 
SCCF RECON,ioos:station:SCCF:13:1,2015-05-07T22:00:00Z,26.5255,-82.0032,2.67,31.25,1111122 
SCCF RECON,ioos:station:SCCF:13:1,2015-05-07T23:00:00Z,26.5255,-82.0032,2.558,29.56,1111122 
SCCF RECON,ioos:station:SCCF:13:1,2015-05-08T00:00:00Z,26.5255,-82.0032,2.47,28.89,1111122 
SCCF RECON,ioos:station:SCCF:13:1,2015-05-08T01:00:00Z,26.5255,-82.0032,2.4,27.09,1111122 
SCCF RECON,ioos:station:SCCF:13:1,2015-05-08T02:00:00Z,26.5255,-82.0032,2.31,24.18,1111122 
SCCF RECON,ioos:station:SCCF:13:1,2015-05-08T03:00:00Z,26.5255,-82.0032,2.231,20.88,1111122 
SCCF RECON,ioos:station:SCCF:13:1,2015-05-08T04:00:00Z,26.5255,-82.0032,2.21,19.35,1111122 
SCCF RECON,ioos:station:SCCF:13:1,2015-05-08T05:00:00Z,26.5255,-82.0032,2.3,17.89,1111122 
SCCF RECON,ioos:station:SCCF:13:1,2015-05-08T06:00:00Z,26.5255,-82.0032,2.4,16.55,1111122 
SCCF RECON,ioos:station:SCCF:13:1,2015-05-08T07:00:00Z,26.5255,-82.0032,2.46,17.44,1111122 
SCCF RECON,ioos:station:SCCF:13:1,2015-05-08T08:00:00Z,26.5255,-82.0032,2.51,21.83,1111122 
SCCF RECON,ioos:station:SCCF:13:1,2015-05-08T09:00:00Z,26.5255,-82.0032,2.57,24.84,1111122 
SCCF RECON,ioos:station:SCCF:13:1,2015-05-08T10:00:00Z,26.5255,-82.0032,2.599,27.19,1111122 
SCCF RECON,ioos:station:SCCF:13:1,2015-05-08T11:00:00Z,26.5255,-82.0032,2.6,28.27,1111122 
SCCF RECON,ioos:station:SCCF:13:1,2015-05-08T12:00:00Z,26.5255,-82.0032,2.58,28.6,1111122 
SCCF RECON,ioos:station:SCCF:13:1,2015-05-08T13:00:00Z,26.5255,-82.0032,2.55,28.94,1111122 
SCCF RECON,ioos:station:SCCF:13:1,2015-05-08T14:00:00Z,26.5255,-82.0032,2.49,28.73,1111122 
SCCF RECON,ioos:station:SCCF:13:1,2015-05-08T15:00:00Z,26.5255,-82.0032,2.48,25.31,1111122 
SCCF RECON,ioos:station:SCCF:13:1,2015-05-08T16:00:00Z,26.5255,-82.0032,2.55,23.18,1111122 
SCCF RECON,ioos:station:SCCF:13:1,2015-05-08T17:00:00Z,26.5255,-82.0032,2.65,25.22,1111122 
SCCF RECON,ioos:station:SCCF:13:1,2015-05-08T18:00:00Z,26.5255,-82.0032,2.723,27.68,1111122 
SCCF RECON,ioos:station:SCCF:13:1,2015-05-08T19:00:00Z,26.5255,-82.0032,2.78,28.34,1111122 
SCCF RECON,ioos:station:SCCF:13:1,2015-05-08T20:00:00Z,26.5255,-82.0032,2.81,30.06,1111122 
SCCF RECON,ioos:station:SCCF:13:1,2015-05-08T21:00:00Z,26.5255,-82.0032,2.8,30.47,1111122 
SCCF RECON,ioos:station:SCCF:13:1,2015-05-08T22:00:00Z,26.5255,-82.0032,2.74,30.99,1111122 
SCCF RECON,ioos:station:SCCF:13:1,2015-05-08T23:00:00Z,26.5255,-82.0032,2.65,30.94,1111122 
SCCF RECON,ioos:station:SCCF:13:1,2015-05-09T00:00:00Z,26.5255,-82.0032,2.55,29.42,1111122 
SCCF RECON,ioos:station:SCCF:13:1,2015-05-09T01:00:00Z,26.5255,-82.0032,2.479,28.43,1111122 
SCCF RECON,ioos:station:SCCF:13:1,2015-05-09T02:00:00Z,26.5255,-82.0032,2.39,24.49,1111122 
SCCF RECON,ioos:station:SCCF:13:1,2015-05-09T03:00:00Z,26.5255,-82.0032,2.31,21.45,1111122 
SCCF RECON,ioos:station:SCCF:13:1,2015-05-09T04:00:00Z,26.5255,-82.0032,2.245,19.22,1111122 
SCCF RECON,ioos:station:SCCF:13:1,2015-05-09T05:00:00Z,26.5255,-82.0032,2.24,18.37,1111122 
SCCF RECON,ioos:station:SCCF:13:1,2015-05-09T06:00:00Z,26.5255,-82.0032,2.33,17.06,1111122 
SCCF RECON,ioos:station:SCCF:13:1,2015-05-09T07:00:00Z,26.5255,-82.0032,2.43,16.12,1111122 
SCCF RECON,ioos:station:SCCF:13:1,2015-05-09T08:00:00Z,26.5255,-82.0032,2.5,19.48,1111122 
SCCF RECON,ioos:station:SCCF:13:1,2015-05-09T09:00:00Z,26.5255,-82.0032,2.56,21.34,1111122 
SCCF RECON,ioos:station:SCCF:13:1,2015-05-09T10:00:00Z,26.5255,-82.0032,2.6,25.04,1111122 
SCCF RECON,ioos:station:SCCF:13:1,2015-05-09T11:00:00Z,26.5255,-82.0032,2.63,27.19,1111122 
SCCF RECON,ioos:station:SCCF:13:1,2015-05-09T12:00:00Z,26.5255,-82.0032,2.609,28.13,1111122 
SCCF RECON,ioos:station:SCCF:13:1,2015-05-09T13:00:00Z,26.5255,-82.0032,2.56,28.61,1111122 
SCCF RECON,ioos:station:SCCF:13:1,2015-05-09T14:00:00Z,26.5255,-82.0032,2.51,27.87,1111122 
SCCF RECON,ioos:station:SCCF:13:1,2015-05-09T15:00:00Z,26.5255,-82.0032,2.48,23.84,1111122 
SCCF RECON,ioos:station:SCCF:13:1,2015-05-09T16:00:00Z,26.5255,-82.0032,2.47,20.35,1111122 
SCCF RECON,ioos:station:SCCF:13:1,2015-05-09T17:00:00Z,26.5255,-82.0032,2.51,20.25,1111122 
SCCF RECON,ioos:station:SCCF:13:1,2015-05-09T18:00:00Z,26.5255,-82.0032,2.57,22.29,1111122 
SCCF RECON,ioos:station:SCCF:13:1,2015-05-09T19:00:00Z,26.5255,-82.0032,2.66,24.57,1111122 
SCCF RECON,ioos:station:SCCF:13:1,2015-05-09T20:00:00Z,26.5255,-82.0032,2.703,26.12,1111122 
SCCF RECON,ioos:station:SCCF:13:1,2015-05-09T21:00:00Z,26.5255,-82.0032,2.72,28.23,1111122 
SCCF RECON,ioos:station:SCCF:13:1,2015-05-09T22:00:00Z,26.5255,-82.0032,2.719,28.74,1111122 
SCCF RECON,ioos:station:SCCF:13:1,2015-05-09T23:00:00Z,26.5255,-82.0032,2.664,29.59,1111122 
SCCF RECON,ioos:station:SCCF:13:1,2015-05-10T00:00:00Z,26.5255,-82.0032,2.58,28.99,1111122 
SCCF RECON,ioos:station:SCCF:13:1,2015-05-10T01:00:00Z,26.5255,-82.0032,2.48,27.06,1111122 
SCCF RECON,ioos:station:SCCF:13:1,2015-05-10T02:00:00Z,26.5255,-82.0032,2.41,23.69,1111122 
SCCF RECON,ioos:station:SCCF:13:1,2015-05-10T03:00:00Z,26.5255,-82.0032,2.34,20.55,1111122 
SCCF RECON,ioos:station:SCCF:13:1,2015-05-10T04:00:00Z,26.5255,-82.0032,2.26,18.43,1111122 
SCCF RECON,ioos:station:SCCF:13:1,2015-05-10T05:00:00Z,26.5255,-82.0032,2.21,16.92,1111122 
SCCF RECON,ioos:station:SCCF:13:1,2015-05-10T06:00:00Z,26.5255,-82.0032,2.22,16.08,1111122 
SCCF RECON,ioos:station:SCCF:13:1,2015-05-10T07:00:00Z,26.5255,-82.0032,2.301,14.76,1111122 
SCCF RECON,ioos:station:SCCF:13:1,2015-05-10T08:00:00Z,26.5255,-82.0032,2.39,14.12,1111122 
SCCF RECON,ioos:station:SCCF:13:1,2015-05-10T09:00:00Z,26.5255,-82.0032,2.47,17.2,1111122 
SCCF RECON,ioos:station:SCCF:13:1,2015-05-10T10:00:00Z,26.5255,-82.0032,2.525,19.76,1111122 
SCCF RECON,ioos:station:SCCF:13:1,2015-05-10T11:00:00Z,26.5255,-82.0032,2.6,23.76,1111122 
SCCF RECON,ioos:station:SCCF:13:1,2015-05-10T12:00:00Z,26.5255,-82.0032,2.64,27.37,1111122 
SCCF RECON,ioos:station:SCCF:13:1,2015-05-10T13:00:00Z,26.5255,-82.0032,2.63,28.26,1111122 
SCCF RECON,ioos:station:SCCF:13:1,2015-05-10T14:00:00Z,26.5255,-82.0032,2.59,28.3,1111122 
SCCF RECON,ioos:station:SCCF:13:1,2015-05-10T15:00:00Z,26.5255,-82.0032,2.558,28.67,1111122 
SCCF RECON,ioos:station:SCCF:13:1,2015-05-10T16:00:00Z,26.5255,-82.0032,2.491,28.18,1111122 
SCCF RECON,ioos:station:SCCF:13:1,2015-05-10T17:00:00Z,26.5255,-82.0032,2.48,25.38,1111122 
SCCF RECON,ioos:station:SCCF:13:1,2015-05-10T18:00:00Z,26.5255,-82.0032,2.51,22.68,1111122 
SCCF RECON,ioos:station:SCCF:13:1,2015-05-10T19:00:00Z,26.5255,-82.0032,2.57,25.04,1111122 
SCCF RECON,ioos:station:SCCF:13:1,2015-05-10T20:00:00Z,26.5255,-82.0032,2.63,24.64,1111122 
SCCF RECON,ioos:station:SCCF:13:1,2015-05-10T21:00:00Z,26.5255,-82.0032,2.68,25.66,1111122 
SCCF RECON,ioos:station:SCCF:13:1,2015-05-10T22:00:00Z,26.5255,-82.0032,2.72,27.55,1111122 
SCCF RECON,ioos:station:SCCF:13:1,2015-05-10T23:00:00Z,26.5255,-82.0032,2.71,28.87,1111122 
SCCF RECON,ioos:station:SCCF:13:1,2015-05-11T00:00:00Z,26.5255,-82.0032,2.687,29.55,1111122 
SCCF RECON,ioos:station:SCCF:13:1,2015-05-11T01:00:00Z,26.5255,-82.0032,2.63,29.5,1111122 
SCCF RECON,ioos:station:SCCF:13:1,2015-05-11T02:00:00Z,26.5255,-82.0032,2.531,26.35,1111122 
SCCF RECON,ioos:station:SCCF:13:1,2015-05-11T03:00:00Z,26.5255,-82.0032,2.44,20.29,1111122 
SCCF RECON,ioos:station:SCCF:13:1,2015-05-11T04:00:00Z,26.5255,-82.0032,2.36,19.47,1111122 
SCCF RECON,ioos:station:SCCF:13:1,2015-05-11T05:00:00Z,26.5255,-82.0032,2.28,17.81,1111122 
SCCF RECON,ioos:station:SCCF:13:1,2015-05-11T06:00:00Z,26.5255,-82.0032,2.23,16.61,1111122 
SCCF RECON,ioos:station:SCCF:13:1,2015-05-11T07:00:00Z,26.5255,-82.0032,2.23,16.12,1111122 
SCCF RECON,ioos:station:SCCF:13:1,2015-05-11T08:00:00Z,26.5255,-82.0032,2.318,15.22,1111122 
SCCF RECON,ioos:station:SCCF:13:1,2015-05-11T09:00:00Z,26.5255,-82.0032,2.406,14.67,1111122 
SCCF RECON,ioos:station:SCCF:13:1,2015-05-11T10:00:00Z,26.5255,-82.0032,2.49,16.79,1111122 
SCCF RECON,ioos:station:SCCF:13:1,2015-05-11T11:00:00Z,26.5255,-82.0032,2.56,20.13,1111122 
SCCF RECON,ioos:station:SCCF:13:1,2015-05-11T12:00:00Z,26.5255,-82.0032,2.62,24.18,1111122 
SCCF RECON,ioos:station:SCCF:13:1,2015-05-11T13:00:00Z,26.5255,-82.0032,2.65,28.17,1111122 
SCCF RECON,ioos:station:SCCF:13:1,2015-05-11T14:00:00Z,26.5255,-82.0032,2.64,28.95,1111122 
SCCF RECON,ioos:station:SCCF:13:1,2015-05-11T15:00:00Z,26.5255,-82.0032,2.6,29.1,1111122 
SCCF RECON,ioos:station:SCCF:13:1,2015-05-11T16:00:00Z,26.5255,-82.0032,2.55,29.33,1111122 
SCCF RECON,ioos:station:SCCF:13:1,2015-05-11T17:00:00Z,26.5255,-82.0032,2.5,27.89,1111122 
SCCF RECON,ioos:station:SCCF:13:1,2015-05-11T18:00:00Z,26.5255,-82.0032,2.46,26.14,1111122 